Regional Weather Roundup
Issued by NWS

Home | Current Version | Previous Version | Graphics & Text | Print | Product List | Glossary On
Versions: 1 2 3 4 5 6 7 8 9 10 11 12 13 14 15 16 17 18 19 20 21 22 23 24 25 26 27 28 29 30 31 32 33 34 35 36 37 38 39 40 41 42 43 44 45 46 47 48 49 50
174
ASUS43 KLOT 301212
RWRIL

ILLINOIS REGIONAL WEATHER ROUNDUP
NATIONAL WEATHER SERVICE CHICAGO/ROMEOVILLE IL
700 AM CDT FRI SEP 30 2016

NOTE: "FAIR" INDICATES FEW OR NO CLOUDS BELOW 12,000 FEET WITH NO
SIGNIFICANT WEATHER AND/OR OBSTRUCTIONS TO VISIBILITY.

* THESE STATIONS ARE NOT UNDER NWS QUALITY CONTROL. THEY ALSO MAY NOT
  REPORT WEATHER SUCH AS PRECIPITATION OR FOG.

ILZ001-002-007-009-015-016-024-301300-
NORTHWEST ILLINOIS

CITY           SKY/WX    TMP DP  RH WIND       PRES   REMARKS
MOLINE         CLOUDY    59  53  80 N9        30.19F
6HR MIN TEMP:  59; 6HR MAX TEMP:  60;

STERLING*      CLOUDY    59  56  89 N8        30.19S
SAVANNA*       CLOUDY    59  55  85 N10       30.21S
$$

ILZ003-004-008-010-011-017-018-301300-
NORTH CENTRAL ILLINOIS

CITY           SKY/WX    TMP DP  RH WIND       PRES   REMARKS
ROCKFORD       CLOUDY    60  56  86 N12       30.20S
6HR MIN TEMP:  60; 6HR MAX TEMP:  61; 6HR PCP: TRACE;

FREEPORT*      CLOUDY    58  55  89 N8        30.22S
ROCHELLE*      DRIZZLE   58  57  97 N13       30.17S
DE KALB*       CLOUDY    60  58  94 NE12      30.17S
$$

ILZ005-006-012>014-019>023-301300-
NORTHEAST ILLINOIS

CITY           SKY/WX    TMP DP  RH WIND       PRES   REMARKS
CHICAGO-OHARE  CLOUDY    60  59  96 N10       30.14F
6HR MIN TEMP:  60; 6HR MAX TEMP:  61; 6HR PCP:  0.08;

CHICAGO-MIDWAY CLOUDY    63  59  87 N12       30.13F
6HR MIN TEMP:  61; 6HR MAX TEMP:  63; 6HR PCP:  0.12;

AURORA         CLOUDY    61  58  90 NE14      30.14F
6HR MIN TEMP:  61; 6HR MAX TEMP:  62; 6HR PCP: TRACE;

LANSING*       CLOUDY    61  60  97 NE7       30.12F
JOLIET*        CLOUDY    62  61  96 N10       30.13F
WAUKEGAN       LGT RAIN  62  58  86 NE9       30.17S
6HR MIN TEMP:  60; 6HR MAX TEMP:  62; 6HR PCP:  0.01;

DUPAGE AIRPORT CLOUDY    60  58  92 NE10      30.15F
6HR MIN TEMP:  60; 6HR MAX TEMP:  61; 6HR PCP:  0.04;

KANKAKEE*      CLOUDY    60  58  95 N6        30.11S
WHEELING       LGT RAIN  61  59  93 NE8       30.17S FOG
6HR MIN TEMP:  60; 6HR MAX TEMP:  62; 6HR PCP:  0.06;

MORRIS*        CLOUDY    60  58  94 NE5       30.11F
ROMEOVILLE*    CLOUDY    60  60 100 NE13      30.13F
NORTHERLY ISL    N/A     61  58  90 NE10        N/A
$$

LMZ740>746-301300-
SOUTHERN LAKE MICHIGAN

STATION/POSITION SKY/WX   TEMP    WIND        PRES    VSBY  WAVE
                          AIR SEA DIR/SP/G                  HT/PER
                          (F)     (DEG/KT/KT) (MB)    (MI)  (FT/S)
SOUTHERN BUOY              62 68   60/ 19/ 21 1021.0F         5/ 6
WILMETTE HARBOR            60 56   70/ 12/ 17   N/A           6/ 6
HARRISON CRIB              64      40/ 20/ 23   N/A
BURNHAM HARBOR             61      30/  9/ 14   N/A
CALUMET HARBOR             62      20/ 11/ 18 1019.6F
BURNS HARBOR               62      40/ 18/ 22 1020.0F
MICHIGAN CITY              60      10/ 19/ 21   N/A
MICHIGAN CITY 6N           61 64   30/ 17/ 23   N/A           5/ 6
ST. JOSEPH                 56 55   20/ 12/ 16 1020.5          3/ 5
$$

ILZ025>027-034>036-040-047-049-050-058-095>099-301300-
WEST-CENTRAL ILLINOIS

CITY           SKY/WX    TMP DP  RH WIND       PRES   REMARKS
QUINCY         PTCLDY    56  53  90 N7        30.16F
GALESBURG*     CLOUDY    58  55  88 N12       30.17F
MACOMB*        CLOUDY    59  55  87 N12       30.18F
JACKSONVILLE*  CLOUDY    58  56  91 NW8       30.13F
PITTSFIELD*    MOCLDY    60  56  87 N5        30.15F
$$

ILZ028>032-037-038-041>044-048-051>054-059>061-301300-
CENTRAL ILLINOIS

CITY           SKY/WX    TMP DP  RH WIND       PRES   REMARKS
PONTIAC        CLOUDY    61  61 100 NE8       30.12F
DECATUR        CLOUDY    60  57  89 N9        30.10R
PEORIA         CLOUDY    58  58 100 N12G17    30.14S
6HR MIN TEMP:  58; 6HR MAX TEMP:  60; 6HR PCP: TRACE;

LACON*         DRIZZLE   58  57  97 N9        30.13S
LINCOLN*       CLOUDY    60  60 100 N9        30.11R FOG
SPRINGFIELD    CLOUDY    60  57  89 N12       30.11F
6HR MIN TEMP:  57; 6HR MAX TEMP:  60; 6HR PCP:  0.01;

TAYLORVILLE    CLOUDY    58  58  98 N10       30.09S FOG
6HR MIN TEMP:  55; 6HR MAX TEMP:  58; 6HR PCP:  0.04;

$$

ILZ033-039-045-046-055>057-062-063-301300-
EAST-CENTRAL ILLINOIS

CITY           SKY/WX    TMP DP  RH WIND       PRES   REMARKS
CHAMPAIGN      CLOUDY    60  57  89 NE12      30.09R
RANTOUL*       CLOUDY    61  60  96 N10       30.09R
MATTOON        CLOUDY    59  57  93 N10       30.06R
PARIS*         CLOUDY    59  59 100 CALM      30.07S
$$

ILZ079-100>102-301300-
SOUTHWEST ILLINOIS

CITY           SKY/WX    TMP DP  RH WIND       PRES   REMARKS
ALTON          CLOUDY    59  57  94 NW7       30.11S
BELLEVILLE     CLOUDY    60  60  99 N7        30.09S
CAHOKIA*       CLOUDY    61  57  87 N13       30.11S
SPARTA*        CLOUDY    59  57  95 NW3       30.10S
$$

ILZ064>066-069>071-074>076-080>082-084>086-088>090-092>094-301300-
SOUTH-CENTRAL ILLINOIS

CITY           SKY/WX    TMP DP  RH WIND       PRES   REMARKS
CARBONDALE     CLOUDY    59  59 100 NW8       30.07F
6HR MIN TEMP:  58; 6HR MAX TEMP:  59;

CAIRO*         PTCLDY    56  56 100 NW3       30.08S FOG
EFFINGHAM*     DRIZZLE   60  60 100 NW7       30.07S
MARION         CLOUDY    61  59  94 NW7       30.08S
MT. VERNON     CLOUDY    59  54  82 CALM      30.06F
CENTRALIA*     RAIN      60  59  96 NW8       30.06S
SALEM*         CLOUDY    61  58  91 NW6       30.06F FOG
METROPOLIS*    CLOUDY    60  57  90 NW3       30.07S
$$

ILZ067-068-072-073-078-083-087-091-301300-
SOUTHEAST ILLINOIS

CITY           SKY/WX    TMP DP  RH WIND       PRES   REMARKS
LAWRENCEVILLE  LGT RAIN  60  58  92 N6        30.03F
FLORA*         HVY RAIN  61  59  95 N9        30.05S
FAIRFIELD*     CLOUDY    59  58  98 CALM      30.04S
HARRISBURG*    LGT RAIN  58  57  97 NW5       30.06F
ROBINSON*      LGT RAIN  59  58  99 N7        30.05S
CARMI*         CLOUDY    57  57 100 W7        30.04S FOG
$$

ABBREVIATIONS USED IN REMARKS
   TC - TEMPERATURE IN CELSIUS
  WCI - WIND CHILL INDEX
   HX - HEAT INDEX
  VSB - VISIBILITY
$$





USA.gov is the U.S. government's official web portal to all federal, state and local government web resources and services.